Flag Weather past 2 weeks in Bautzen, Saxony, Germany

Now
43 °F

Clear.


Feels Like: 39 °F
Forecast: 37 / 45 °F
Wind: 7 mph from South

Location: Goerlitz

Current Time: Nov 23, 2014 at 9:31:57 PM

Latest Report: Nov 23, 2014 at 9:00 PM


Visibility: 5 mi

Pressure: 30.25 "Hg

Humidity: 81%

Dew point: 37 °F

Location of BautzenLocation

Historic Weather in Bautzen — Graph

°F

Bautzen temperature yesterday

Maximum temperature yesterday: 42 °F (at 2:00 PM)
Minimum temperature yesterday: 35 °F (at 9:00 PM)
Average temperature yesterday: 39 °F

Past Weeks' High & Low Weather Summary

 TemperatureHumidityPressure
High60 °F (Nov 12, 2:00 PM)100% (Nov 12, 10:00 AM)30.36 "Hg (Nov 12, 10:00 AM)
Low32 °F (Nov 9, 5:00 AM)67% (Nov 12, 2:00 PM)29.59 "Hg (Nov 16, 11:00 AM)
Average45 °F91%29.99 "Hg
* Reported Nov 8 8:00 PM — Nov 23 8:00 PM, Bautzen, Weather by CustomWeather, © 2014

Note: Actual official high and low records may vary slightly from our data, if they occured in-between our weather recording intervals... More about our weather records

Advertising

Bautzen weather history for previous 24 hours

 ConditionsComfort  
Time TempWeatherWind HumidityBarometerVisibility
8:00 PM
Nov 23
42 °FClear.7 mph83%30.26 "Hg5 mi
7:00 PM41 °FClear.7 mph84%30.28 "Hg5 mi
6:00 PM42 °FClear.7 mph83%30.29 "Hg5 mi
5:00 PM42 °FPassing clouds.7 mph84%30.28 "Hg5 mi
4:00 PM42 °FScattered clouds.6 mph83%30.30 "Hg5 mi
3:00 PM44 °FSunny.7 mph81%30.30 "Hg6 mi
2:00 PM44 °FSunny.7 mph79%30.30 "Hg6 mi
1:00 PM45 °FPassing clouds.8 mph79%30.31 "Hg5 mi
12:00 PM45 °FScattered clouds.6 mph80%30.31 "Hg6 mi
11:00 AM44 °FScattered clouds.7 mph82%30.32 "Hg6 mi
10:00 AM42 °FPassing clouds.10 mph84%30.32 "Hg6 mi
9:00 AM40 °FScattered clouds.5 mph85%30.33 "Hg7 mi
8:00 AM39 °FScattered clouds.7 mph86%30.31 "Hg6 mi
7:00 AM38 °FPassing clouds.6 mph87%30.30 "Hg7 mi
6:00 AM38 °FPassing clouds.6 mph86%30.30 "Hg7 mi
5:00 AM38 °FClear.7 mph85%30.29 "Hg9 mi
4:00 AM38 °FClear.7 mph85%30.29 "Hg9 mi
3:00 AM38 °FPassing clouds.7 mph84%30.29 "Hg9 mi
2:00 AM38 °FPassing clouds.5 mph88%30.30 "Hg9 mi
1:00 AM34 °FClear.3 mph95%30.32 "Hg7 mi
12:00 AM34 °FPassing clouds.2 mph91%30.32 "Hg9 mi
11:00 PM
Nov 22
36 °FPassing clouds.2 mph86%30.32 "Hg9 mi
10:00 PM37 °FOvercast.3 mph85%30.31 "Hg9 mi
9:00 PM35 °FClear.2 mph86%30.32 "Hg9 mi
Weather by CustomWeather, © 2014

See weather overviewHow to use our weather pages